Left ArrowRight Arrow

Hourly Observations for April 4, 2019

Temp ( °F °C ) Dew Point ( °F °C ) Humidity (%) Winds ( mph kmh ) Pressure ( in mb ) Visibility ( mi km ) Precip ( " mm )
12:51 am 00:51 Mostly Clear 40 4.4 17 -8.3 40 40 W 22 35 30.00 1016 10 16 0.00 0.00
1:51 am 01:51 Clear 39 3.9 16 -8.9 39 39 W 10 17 30.00 1016 10 16 0.00 0.00
2:51 am 02:51 Clear 37 2.8 11 -11.7 34 34 W 14 22 30.03 1017 10 16 0.00 0.00
3:51 am 03:51 Clear 36 2.2 9 -12.8 32 32 W 17 28 30.06 1018 10 16 0.00 0.00
4:51 am 04:51 Clear 35 1.7 10 -12.2 35 35 W 12 19 30.07 1018 10 16 0.00 0.00
5:51 am 05:51 Mostly Clear 34 1.1 11 -11.7 38 38 W 10 17 30.10 1019 10 16 0.00 0.00
6:51 am 06:51 Mostly Sunny 34 1.1 10 -12.2 37 37 W 12 19 30.13 1020 10 16 0.00 0.00
7:51 am 07:51 Mostly Sunny 36 2.2 8 -13.3 31 31 W 13 20 30.16 1021 10 16 0.00 0.00
8:51 am 08:51 Mostly Sunny 38 3.3 9 -12.8 30 30 W 23 37 30.16 1021 10 16 0.00 0.00
9:51 am 09:51 Mostly Sunny 39 3.9 8 -13.3 28 28 WNW 20 31 30.17 1022 10 16 0.00 0.00
10:51 am 10:51 Mostly Sunny 40 4.4 8 -13.3 27 27 W 15 24 30.18 1022 10 16 0.00 0.00
11:51 am 11:51 Mostly Sunny 41 5 7 -13.9 24 24 WNW 21 33 30.19 1022 10 16 0.00 0.00
12:51 pm 12:51 Mostly Sunny 42 5.6 7 -13.9 23 23 W 23 37 30.20 1023 10 16 0.00 0.00
1:51 pm 13:51 Mostly Sunny 43 6.1 7 -13.9 22 22 W 22 35 30.19 1023 10 16 0.00 0.00
2:51 pm 14:51 Mostly Sunny 43 6.1 7 -13.9 22 22 W 24 39 30.20 1023 10 16 0.00 0.00
3:51 pm 15:51 Mostly Sunny 44 6.7 7 -13.9 22 22 WNW 26 43 30.20 1023 10 16 0.00 0.00
4:51 pm 16:51 Mostly Sunny 43 6.1 6 -14.4 22 22 W 24 39 30.21 1023 10 16 0.00 0.00
5:51 pm 17:51 Sunny 41 5 6 -14.4 23 23 NW 21 33 30.23 1024 10 16 0.00 0.00
6:51 pm 18:51 Sunny 38 3.3 7 -13.9 27 27 NW 14 22 30.26 1025 10 16 0.00 0.00
7:51 pm 19:51 Clear 36 2.2 7 -13.9 30 30 NW 17 28 30.30 1026 10 16 0.00 0.00
8:51 pm 20:51 Clear 35 1.7 6 -14.4 29 29 NW 18 30 30.33 1027 10 16 0.00 0.00
9:51 pm 21:51 Clear 34 1.1 8 -13.3 34 34 NW 18 30 30.35 1028 10 16 0.00 0.00
10:51 pm 22:51 Clear 33 0.6 8 -13.3 35 35 WNW 21 33 30.37 1029 10 16 0.00 0.00
11:51 pm 23:51 Clear 32 0 9 -12.8 38 38 NW 14 22 30.37 1029 10 16 0.00 0.00

Powered by Vaisala Xweather